TimeEST,TemperatureF,Dew PointF,Humidity,Sea Level PressureIn,VisibilityMPH,Wind Direction,Wind SpeedMPH,Gust SpeedMPH,PrecipitationIn,Events,Conditions,WindDirDegrees,DateUTC
12:53 AM,27.0,25.0,92,30.01,10.0,Calm,Calm,-,N/A,,Clear,0,2012-12-24 05:53:00
1:53 AM,27.0,24.1,89,30.01,10.0,Calm,Calm,-,N/A,,Clear,0,2012-12-24 06:53:00
2:53 AM,25.0,24.1,96,30.01,9.0,North,3.5,-,N/A,,Clear,10,2012-12-24 07:53:00
3:53 AM,26.1,24.1,92,30.01,10.0,Calm,Calm,-,N/A,,Clear,0,2012-12-24 08:53:00
4:53 AM,24.1,23.0,96,30.00,9.0,Calm,Calm,-,N/A,,Clear,0,2012-12-24 09:53:00
5:53 AM,26.1,23.0,88,29.99,10.0,Calm,Calm,-,N/A,,Clear,0,2012-12-24 10:53:00
6:53 AM,26.1,24.1,92,29.96,10.0,Calm,Calm,-,N/A,,Clear,0,2012-12-24 11:53:00
7:53 AM,27.0,23.0,85,29.95,10.0,Calm,Calm,-,N/A,,Clear,0,2012-12-24 12:53:00
8:53 AM,28.0,26.1,92,29.94,10.0,Calm,Calm,-,N/A,,Clear,0,2012-12-24 13:53:00
9:53 AM,30.9,27.0,85,29.93,10.0,NNW,3.5,-,N/A,,Clear,340,2012-12-24 14:53:00
10:53 AM,36.0,28.9,76,29.90,10.0,Calm,Calm,-,N/A,,Clear,0,2012-12-24 15:53:00
11:53 AM,41.0,28.0,60,29.86,10.0,East,6.9,-,N/A,,Overcast,90,2012-12-24 16:53:00
12:53 PM,39.0,33.1,79,29.84,7.0,East,5.8,-,0.02,Rain,Light Rain,100,2012-12-24 17:53:00
1:53 PM,39.0,33.1,79,29.81,10.0,ESE,6.9,-,0.03,Rain,Light Rain,110,2012-12-24 18:53:00
2:53 PM,39.0,34.0,82,29.80,10.0,SE,9.2,-,0.01,,Overcast,140,2012-12-24 19:53:00
3:18 PM,39.2,33.8,81,29.77,10.0,ESE,8.1,-,N/A,,Overcast,120,2012-12-24 20:18:00
3:53 PM,39.9,35.1,83,29.80,10.0,SE,4.6,-,0.00,Rain,Light Rain,130,2012-12-24 20:53:00
4:53 PM,39.9,37.0,89,29.80,8.0,South,6.9,-,0.00,,Overcast,170,2012-12-24 21:53:00
5:01 PM,39.2,37.4,93,29.77,10.0,South,6.9,-,N/A,,Overcast,170,2012-12-24 22:01:00
5:31 PM,39.2,37.4,93,29.77,5.0,SSE,5.8,-,N/A,,Overcast,160,2012-12-24 22:31:00
5:53 PM,39.9,39.0,97,29.81,10.0,South,4.6,-,N/A,,Overcast,170,2012-12-24 22:53:00
6:53 PM,42.1,41.0,96,29.82,4.0,SSW,3.5,-,N/A,,Overcast,200,2012-12-24 23:53:00
7:06 PM,42.8,41.0,93,29.79,4.0,SSW,6.9,-,N/A,,Overcast,200,2012-12-25 00:06:00
7:26 PM,42.8,41.0,93,29.79,2.5,SSW,4.6,-,N/A,,Overcast,210,2012-12-25 00:26:00
7:42 PM,42.8,41.0,93,29.79,3.0,SSW,6.9,-,0.01,,Overcast,210,2012-12-25 00:42:00
7:53 PM,42.1,41.0,96,29.83,4.0,SSW,8.1,-,0.01,,Overcast,210,2012-12-25 00:53:00
8:53 PM,42.1,41.0,96,29.85,3.0,SW,8.1,-,N/A,,Overcast,220,2012-12-25 01:53:00
9:09 PM,41.0,39.2,93,29.83,2.5,Variable,4.6,-,N/A,,Overcast,0,2012-12-25 02:09:00
9:22 PM,41.0,39.2,93,29.84,4.0,SW,5.8,-,N/A,,Overcast,230,2012-12-25 02:22:00
9:53 PM,41.0,39.9,96,29.88,7.0,Variable,5.8,-,N/A,,Overcast,0,2012-12-25 02:53:00
10:53 PM,41.0,39.9,96,29.90,10.0,SW,5.8,-,N/A,,Overcast,230,2012-12-25 03:53:00
11:20 PM,41.0,39.2,93,29.88,10.0,WSW,4.6,-,N/A,,Overcast,240,2012-12-25 04:20:00
11:53 PM,41.0,39.0,93,29.91,10.0,WSW,5.8,-,N/A,,Overcast,240,2012-12-25 04:53:00